Location: Unspecified
(0.0000°N, 0.0000°E)
Time: 23:03:19
(UTC+00:00)

TITAN 3C TRANSTAGE DEB - Visible Passes

Search period start: 05 June 2026 00:00
Search period end: 15 June 2026 00:00
Orbit: 492 x 29014 km, 26.7° (Epoch: 15 June)

Date Brightness Start Highest point End Pass type
(mag) Time Alt. Az. Time Alt. Az. Time Alt. Az.
5 Jun ? 02:43:10 10° NW 05:29:42 65° NW 10:13:51 10° SE visible
5 Jun ? 18:58:55 10° W 19:02:33 44° NNW 19:14:13 10° NE visible
6 Jun ? 04:06:58 10° WNW 06:16:06 46° WNW 11:28:41 10° SE visible
6 Jun ? 20:13:42 10° WNW 20:19:33 34° N 03:03:32 10° ESE visible
7 Jun ? 05:41:27 10° WNW 07:19:22 26° WNW 12:43:04 10° SSE visible
7 Jun ? 21:28:47 10° WNW 21:39:34 36° N 04:50:09 10° ESE visible
8 Jun ? 22:44:20 10° NW 23:06:56 42° NNE 06:15:37 10° ESE visible
10 Jun ? 00:00:35 10° NW 05:25:05 81° ESE 07:35:10 10° SE visible
11 Jun ? 01:18:02 10° NW 05:05:20 80° NW 08:52:05 10° SE visible
12 Jun ? 02:37:45 10° NW 05:07:49 63° WNW 10:07:38 10° SE visible
12 Jun ? 18:52:51 10° WNW 18:56:42 33° N 19:08:49 10° NE visible
13 Jun ? 04:02:05 10° WNW 06:02:37 43° WNW 11:22:26 10° SE visible
13 Jun ? 20:07:42 10° WNW 20:14:16 30° N 03:06:03 10° ESE visible
14 Jun ? 05:39:17 10° WNW 07:08:00 23° WNW 12:36:55 10° SSE visible
